Weather History for State College, PA

Change the Weather History Date:

Friday, November 9, 2012

  Actual Average Record
Temperature  
Mean Temperature 42 °F -  
Max Temperature 51 °F 51 °F 72 °F (1975)
Min Temperature 32 °F 33 °F 16 °F (1991)
Degree Days  
Heating Degree Days 24    
Moisture  
Dew Point 29 °F    
Average Humidity 66    
Maximum Humidity 77    
Minimum Humidity 41    
Precipitation  
Precipitation 0.00 in - - ()
Sea Level Pressure  
Sea Level Pressure 30.15 in    
Wind  
Wind Speed 5 mph (West)    
Max Wind Speed 12 mph    
Max Gust Speed 21 mph    
Visibility 10 miles    
Events      
Averages and records for this station are not official NWS values.
T = Trace of Precipitation, MM = Missing Value Source: NWS Daily Summary

Daily Weather History Graph

Daily Weather History Graph

Search for Another Location

Airport:

Trip Planner

Search our weather history database for the weather conditions in past years. The results will help you decide how hot, cold, wet, or windy it might be!

Date:

Astronomy

Nov. 09, 2012 Rise Set
Actual Time 6:51 AM EST 4:58 PM EST
Civil Twilight 6:22 AM EST 5:27 PM EST
Nautical Twilight 5:50 AM EST 5:59 PM EST
Astronomical Twilight 5:17 AM EST 6:32 PM EST
Moon 1:46 AM EST (11/9) 2:11 PM EST (11/9)
Length of Visible Light 11h 04m
Length of Day
10h 06m
Waning Crescent, 23% of the Moon is Illuminated
Nov 9
Waning Crescent
Nov 13
New
Nov 20
First Quarter
Nov 28
Full
Dec 6
Last Quarter

Hourly Weather History & Observations

Time (EST) Temp. Windchill Dew Point Humidity Pressure Visibility Wind Dir Wind Speed Gust Speed Precip Events Conditions
12:15 AM 32.9 °F 27.5 °F 24.8 °F 72% 30.08 in 10.0 mi SW 5.8 mph - N/A   Clear
12:35 AM 32.0 °F 26.4 °F 24.8 °F 75% 30.08 in 10.0 mi WSW 5.8 mph - N/A   Clear
12:55 AM 32.2 °F 25.8 °F 24.8 °F 74% 30.08 in 10.0 mi WSW 6.9 mph - N/A   Scattered Clouds
1:15 AM 32.2 °F 25.8 °F 25.5 °F 76% 30.08 in 10.0 mi SW 6.9 mph - N/A   Mostly Cloudy
1:35 AM 32.9 °F 26.7 °F 26.1 °F 76% 30.08 in 10.0 mi SW 6.9 mph - N/A   Overcast
1:55 AM 33.6 °F 28.4 °F 26.6 °F 75% 30.09 in 10.0 mi WSW 5.8 mph - N/A   Overcast
2:15 AM 34.3 °F 29.2 °F 26.8 °F 74% 30.09 in 10.0 mi WSW 5.8 mph - N/A   Overcast
2:35 AM 33.8 °F 29.6 °F 27.1 °F 77% 30.09 in 10.0 mi SW 4.6 mph - N/A   Overcast
2:55 AM 34.0 °F 28.8 °F 27.3 °F 77% 30.10 in 10.0 mi SW 5.8 mph - N/A   Overcast
3:15 AM 34.7 °F 30.6 °F 27.3 °F 74% 30.10 in 10.0 mi SW 4.6 mph - N/A   Overcast
3:35 AM 34.9 °F 29.9 °F 27.3 °F 74% 30.09 in 10.0 mi WSW 5.8 mph - N/A   Overcast
3:55 AM 35.2 °F 30.3 °F 27.7 °F 74% 30.11 in 10.0 mi WSW 5.8 mph - N/A   Overcast
4:15 AM 35.8 °F 30.9 °F 27.9 °F 73% 30.12 in 10.0 mi West 5.8 mph - N/A   Overcast
4:35 AM 36.5 °F 30.3 °F 28.9 °F 74% 30.12 in 10.0 mi West 8.1 mph - N/A   Overcast
5:53 AM 37.4 °F 32.8 °F 30.2 °F 75% 30.14 in 10.0 mi WNW 5.8 mph - N/A   Overcast
6:20 AM 37.4 °F 32.8 °F 28.4 °F 70% 30.14 in 10.0 mi WNW 5.8 mph - N/A   Scattered Clouds
6:53 AM 35.6 °F 30.7 °F 28.4 °F 75% 30.15 in 10.0 mi West 5.8 mph - N/A   Clear
7:53 AM 37.4 °F 32.1 °F 30.2 °F 75% 30.18 in 10.0 mi WSW 6.9 mph - N/A   Scattered Clouds
8:53 AM 39.2 °F 33.6 °F 30.2 °F 70% 30.20 in 10.0 mi West 8.1 mph - N/A   Scattered Clouds
9:53 AM 41.0 °F 38.0 °F 30.2 °F 65% 30.20 in 10.0 mi NW 4.6 mph - N/A   Scattered Clouds
10:53 AM 44.6 °F 39.7 °F 30.2 °F 57% 30.20 in 10.0 mi West 9.2 mph - N/A   Scattered Clouds
11:53 AM 46.4 °F 41.9 °F 30.2 °F 53% 30.20 in 10.0 mi NW 9.2 mph - N/A   Scattered Clouds
12:53 PM 48.2 °F - 30.2 °F 50% 30.16 in 10.0 mi WNW 9.2 mph - N/A   Scattered Clouds
1:53 PM 51.8 °F - 30.2 °F 44% 30.15 in 10.0 mi West 9.2 mph 20.7 mph N/A   Scattered Clouds
2:53 PM 51.8 °F - 30.2 °F 44% 30.14 in 10.0 mi WNW 11.5 mph - N/A   Clear
3:53 PM 51.8 °F - 28.4 °F 41% 30.13 in 10.0 mi WSW 11.5 mph - N/A   Clear
4:53 PM 48.2 °F - 30.2 °F 50% 30.14 in 10.0 mi WSW 5.8 mph - N/A   Clear
5:53 PM 46.4 °F 45.2 °F 30.2 °F 53% 30.16 in 10.0 mi West 3.5 mph - N/A   Clear
6:53 PM 44.6 °F 40.7 °F 30.2 °F 57% 30.16 in 10.0 mi WSW 6.9 mph - N/A   Clear
7:53 PM 42.8 °F - 30.2 °F 61% 30.17 in 10.0 mi Calm Calm - N/A   Clear
8:15 PM 42.8 °F - 31.1 °F 63% 30.17 in 10.0 mi Calm Calm - N/A   Clear
8:35 PM 43.2 °F - 31.1 °F 62% 30.17 in 10.0 mi Calm Calm - N/A   Clear
8:53 PM 42.8 °F - 30.2 °F 61% 30.18 in 10.0 mi Calm Calm - N/A   Clear
8:55 PM 43.2 °F - 31.1 °F 62% 30.18 in 10.0 mi Calm Calm - N/A   Clear
9:15 PM 41.5 °F 39.6 °F 31.1 °F 66% 30.18 in 10.0 mi SW 3.5 mph - N/A   Clear
9:35 PM 41.9 °F 40.0 °F 31.1 °F 66% 30.19 in 10.0 mi West 3.5 mph - N/A   Clear
9:55 PM 41.0 °F - 31.1 °F 68% 30.19 in 10.0 mi Calm Calm - N/A   Clear
10:15 PM 42.8 °F 41.1 °F 31.1 °F 63% 30.19 in 10.0 mi WSW 3.5 mph - N/A   Clear
10:35 PM 39.2 °F - 30.9 °F 72% 30.20 in 10.0 mi Calm Calm - N/A   Clear
10:55 PM 39.9 °F - 31.1 °F 71% 30.20 in 10.0 mi Calm Calm - N/A   Clear
11:15 PM 40.5 °F - 31.1 °F 69% 30.20 in 10.0 mi Calm Calm - N/A   Clear
11:35 PM 40.3 °F - 31.1 °F 70% 30.20 in 10.0 mi Calm Calm - N/A   Clear
11:55 PM 38.3 °F - 30.9 °F 75% 30.20 in 10.0 mi Calm Calm - N/A   Clear